Location: Unspecified
(0.0000°N, 0.0000°E)
Time: 13:28:40
(UTC+00:00)

Vanguard 1 Rocket - Pass Details

Date: 12 February 2023
Orbit: 652 x 4223 km, 34.3° (Epoch: 30 March)

Event Time Altitude Azimuth Distance (km) Brightness Sun altitude
Rises 04:36:25 0° 218° (SW) 4,168 10.6 -23.7°
Reaches altitude 10° 04:40:20 10° 204° (SSW) 2,739 9.7 -22.8°
Maximum altitude 04:45:02 23° 152° (SSE) 1,573 9.1 -21.6°
Drops below altitude 10° 04:48:43 10° 98° (E) 2,090 10.4 -20.7°
Sets 04:51:14 0° 82° (E) 2,953 11.2 -20.1°
